This demonstration page uses our WeatherBlox Daily Observations layout. Learn more.

Left ArrowRight Arrow

Hourly Observations for October 19, 2021

Temp ( °F °C ) Dew Point ( °F °C ) Humidity (%) Winds ( mph kmh ) Pressure ( in mb ) Visibility ( mi km ) Precip ( " mm )
12:15 am 00:15 Clear 47 8.1 42 5.3 83 83 E 5 7 29.83 1010 10 16 N/A
12:35 am 00:35 Clear 46 7.5 41 5.2 86 86 E 5 7 29.83 1010 10 16 N/A
12:55 am 00:55 Clear 48 8.8 42 5.6 81 81 SE 5 7 29.81 1010 10 16 N/A
1:15 am 01:15 Clear 53 11.8 44 6.5 70 70 SE 9 15 29.78 1009 10 16 N/A
1:35 am 01:35 Clear 53 11.7 43 6.3 70 70 SE 9 15 29.78 1008 10 16 N/A
1:55 am 01:55 Clear 53 11.4 43 6.3 71 71 SE 8 13 29.78 1008 10 16 N/A
2:15 am 02:15 Clear 49 9.2 42 5.5 78 78 E 5 7 29.80 1009 10 16 N/A
2:35 am 02:35 Clear 49 9.3 42 5.8 79 79 E 6 9 29.79 1009 10 16 N/A
2:55 am 02:55 Clear 49 9.6 43 6 78 78 ESE 6 9 29.78 1009 10 16 N/A
3:15 am 03:15 Clear 49 9.6 42 5.8 77 77 E 5 7 29.78 1009 10 16 N/A
3:35 am 03:35 Clear 49 9.7 42 5.8 77 77 ESE 6 9 29.78 1009 10 16 N/A
3:55 am 03:55 Clear 49 9.5 42 5.7 77 77 SE 6 9 29.78 1008 10 16 N/A
4:15 am 04:15 Clear 49 9.5 42 5.8 78 78 SE 7 11 29.78 1008 10 16 N/A
4:35 am 04:35 Clear 43 6.1 39 4 87 87 E 5 7 29.80 1009 10 16 N/A
4:55 am 04:55 Clear 45 7 41 5 87 87 E 7 11 29.79 1009 10 16 N/A
5:15 am 05:15 Clear 44 6.6 40 4.4 86 86 E 6 9 29.79 1009 10 16 N/A
5:35 am 05:35 Clear 43 6.1 40 4.7 91 91 E 6 9 29.80 1009 10 16 N/A
5:55 am 05:55 Clear 42 5.4 39 4.1 91 91 E 6 9 29.80 1009 10 16 N/A
6:15 am 06:15 Clear 41 5.2 39 4.1 93 93 E 6 9 29.81 1009 10 16 N/A
6:35 am 06:35 Clear 41 5 39 3.9 93 93 E 5 7 29.81 1009 10 16 N/A
6:55 am 06:55 Clear 41 4.9 39 4 94 94 E 5 7 29.81 1009 10 16 N/A
7:15 am 07:15 Clear 41 5.2 40 4.4 95 95 E 6 9 29.81 1009 10 16 N/A
7:35 am 07:35 Clear 43 6 41 5 93 93 E 6 9 29.80 1009 10 16 N/A
7:55 am 07:55 Clear 44 6.6 42 5.3 92 92 E 6 9 29.79 1009 10 16 N/A
8:15 am 08:15 Sunny 45 7.3 42 5.7 90 90 E 7 11 29.79 1009 10 16 N/A
8:35 am 08:35 Sunny 47 8.2 44 6.4 89 89 ESE 8 13 29.78 1008 10 16 N/A
8:55 am 08:55 Sunny 49 9.6 45 7.1 85 85 SE 8 13 29.76 1008 10 16 N/A
9:15 am 09:15 Sunny 50 10 45 7.1 82 82 SE 8 13 29.76 1008 10 16 N/A
9:35 am 09:35 Sunny 52 11 46 7.5 79 79 SE 8 13 29.75 1008 10 16 N/A
9:55 am 09:55 Sunny 55 12.5 47 8.2 75 75 SSE 12 19 29.75 1007 10 16 N/A
10:15 am 10:15 Sunny 57 13.8 47 8.2 69 69 SSE 12 19 29.74 1007 10 16 N/A
10:35 am 10:35 Sunny 58 14.7 47 8.4 66 66 SE 12 19 29.74 1007 10 16 N/A
10:55 am 10:55 Sunny 60 15.6 47 8.6 63 63 S 12 19 29.72 1006 10 16 N/A
11:15 am 11:15 Sunny 61 16.1 48 8.7 62 62 S 12 19 29.72 1006 10 16 N/A
11:35 am 11:35 Sunny 63 17 48 8.8 59 59 S 12 19 29.70 1006 10 16 N/A
11:55 am 11:55 Sunny 64 17.5 48 8.8 57 57 SSE 14 22 29.69 1006 10 16 N/A
12:15 pm 12:15 Sunny 65 18.2 48 9.1 56 56 SSE 15 24 29.68 1005 10 16 N/A
12:35 pm 12:35 Sunny 65 18.6 48 9 54 54 SE 12 19 29.67 1005 10 16 N/A
12:55 pm 12:55 Sunny 67 19.2 49 9.3 53 53 SSE 14 22 29.66 1004 10 16 N/A
1:15 pm 13:15 Sunny 67 19.6 48 9.1 51 51 SE 14 22 29.66 1004 10 16 N/A
1:35 pm 13:35 Sunny 69 20.4 49 9.3 49 49 SE 14 22 29.65 1004 10 16 N/A
1:55 pm 13:55 Sunny 70 21 49 9.4 48 48 SSE 14 22 29.63 1004 10 16 N/A
2:15 pm 14:15 Sunny 71 21.5 49 9.3 46 46 SSE 16 26 29.63 1003 10 16 N/A
2:35 pm 14:35 Sunny 72 22.3 49 9.2 43 43 SE 14 22 29.62 1003 10 16 N/A
2:55 pm 14:55 Sunny 73 22.7 49 9.2 42 42 SSE 14 22 29.61 1003 10 16 N/A
3:15 pm 15:15 Sunny 74 23.2 48 9 40 40 SSE 15 24 29.60 1002 10 16 N/A
3:35 pm 15:35 Sunny 74 23.4 48 8.9 40 40 SSE 14 22 29.59 1002 10 16 N/A
3:55 pm 15:55 Sunny 75 23.8 49 9.2 40 40 SE 20 31 29.59 1002 10 16 N/A
4:15 pm 16:15 Sunny 75 24.1 49 9.2 39 39 SSE 16 26 29.59 1002 10 16 N/A
4:35 pm 16:35 Sunny 76 24.2 49 9.6 40 40 SSE 14 22 29.59 1002 10 16 N/A
4:55 pm 16:55 Sunny 75 24.1 50 9.8 40 40 SE 15 24 29.59 1002 10 16 N/A
5:15 pm 17:15 Sunny 74 23.6 50 10.2 43 43 SE 14 22 29.59 1002 10 16 N/A
5:35 pm 17:35 Sunny 74 23.3 50 10.2 44 44 SE 15 24 29.61 1003 10 16 N/A
5:55 pm 17:55 Sunny 73 22.6 51 10.4 46 46 SE 10 17 29.61 1003 10 16 N/A
6:15 pm 18:15 Mostly Cloudy 72 22.2 51 10.8 49 49 SE 10 17 29.62 1003 10 16 N/A
6:35 pm 18:35 Cloudy 71 21.5 52 10.9 51 51 ESE 9 15 29.63 1003 10 16 N/A
6:55 pm 18:55 Mostly Cloudy 69 20.8 52 11 54 54 ESE 10 17 29.64 1004 10 16 N/A
7:15 pm 19:15 Partly Cloudy 68 20 52 11 56 56 ESE 12 19 29.65 1004 10 16 N/A
7:35 pm 19:35 Partly Cloudy 67 19.5 52 11.1 58 58 SE 9 15 29.67 1005 10 16 N/A
7:55 pm 19:55 Clear 67 19.5 53 11.8 61 61 SE 13 20 29.67 1005 10 16 N/A
8:15 pm 20:15 Clear 67 19.5 54 12 62 62 SE 16 26 29.68 1005 10 16 N/A
8:35 pm 20:35 Clear 66 19 53 11.7 63 63 SSE 16 26 29.68 1005 10 16 N/A
8:55 pm 20:55 Partly Cloudy 65 18.1 53 11.5 66 66 SSE 9 15 29.71 1006 10 16 N/A
9:15 pm 21:15 Partly Cloudy 64 17.8 53 11.6 67 67 N N/A 29.73 1007 10 16 N/A
9:35 pm 21:35 Clear 62 16.5 53 11.4 72 72 W 17 28 29.77 1008 10 16 N/A
9:55 pm 21:55 Clear 56 13.1 49 9.3 78 78 NW 24 39 29.81 1010 10 16 N/A
10:15 pm 22:15 Clear 53 11.8 47 8.5 80 80 NW 20 31 29.83 1010 10 16 N/A
10:35 pm 22:35 Clear 53 11.6 47 8.6 82 82 NW 15 24 29.85 1011 10 16 N/A
10:55 pm 22:55 Clear 52 11.1 47 8.3 83 83 NW 17 28 29.87 1012 10 16 N/A
11:15 pm 23:15 Clear 51 10.8 47 8.2 84 84 NW 17 28 29.89 1012 10 16 N/A
11:35 pm 23:35 Partly Cloudy 51 10.5 47 8.1 85 85 NW 20 31 29.91 1013 10 16 N/A
11:55 pm 23:55 Mostly Cloudy 51 10.3 47 8.2 87 87 NW 22 35 29.92 1013 10 16 N/A

Powered by AerisWeather